Location: Eaglesham
(55.7833°N, 117.9000°W)
Time: 10:24:44
(UTC+00:00)

Envisat - Visible Passes

Search period start: 02 December 2021 00:00
Search period end: 12 December 2021 00:00
Orbit: 764 x 766 km, 98.2° (Epoch: 01 December)

Date Brightness Start Highest point End Pass type
(mag) Time Alt. Az. Time Alt. Az. Time Alt. Az.
02 Dec 5.9 01:27:42 10° SW 01:30:52 16° W 01:34:03 10° NW visible
02 Dec 5.4 11:47:41 10° NE 11:51:31 21° E 11:55:19 10° SE visible
02 Dec 2.9 13:26:02 10° NNE 13:31:09 79° WNW 13:36:14 10° SSW visible
02 Dec 4.3 15:05:58 10° N 15:09:29 19° NW 15:12:58 10° W visible
03 Dec 5.1 00:49:06 10° SSW 00:53:32 30° W 00:58:01 10° NNW visible
03 Dec 6.1 11:12:37 10° ENE 11:14:03 11° E 11:15:30 10° E visible
03 Dec 3.6 12:49:11 10° NNE 12:54:13 58° E 12:59:14 10° S visible
03 Dec 3.7 14:28:36 10° N 14:33:01 31° WNW 14:37:25 10° WSW visible
04 Dec 3.9 00:11:26 10° S 00:16:25 54° W 00:21:26 10° NNW visible
04 Dec 6.3 01:55:51 10° W 01:56:37 10° W 01:57:24 10° WNW visible
04 Dec 4.7 12:12:34 10° NNE 12:17:07 31° E 12:21:37 10° SSE visible
04 Dec 3.1 13:51:26 10° N 13:56:24 53° WNW 14:01:19 10° SW visible
05 Dec 5.8 01:15:29 10° SW 01:19:09 20° W 01:22:51 10° NW visible
05 Dec 5.6 11:36:26 10° NE 11:39:48 17° E 11:43:09 10° SE visible
05 Dec 2.9 13:14:27 10° NNE 13:19:35 87° ESE 13:24:41 10° SSW visible
05 Dec 4.1 14:54:13 10° N 14:58:03 22° NW 15:01:52 10° WSW visible
06 Dec 4.8 00:37:14 10° SSW 00:41:53 36° W 00:46:34 10° NNW visible
06 Dec 3.9 12:37:40 10° NNE 12:42:37 48° E 12:47:31 10° S visible
06 Dec 3.5 14:16:56 10° N 14:21:33 36° WNW 14:26:09 10° SW visible
06 Dec 3.5 23:59:45 10° S 00:04:49 66° WSW 00:09:54 10° NNW visible
07 Dec 6.1 01:42:37 10° WSW 01:44:52 13° W 01:47:06 10° NW visible
07 Dec 5.0 12:01:10 10° NE 12:05:26 26° E 12:09:41 10° SSE visible
07 Dec 2.9 13:39:50 10° N 13:44:52 63° WNW 13:49:53 10° SSW visible
07 Dec 4.5 15:20:01 10° N 15:23:01 16° NW 15:26:00 10° W visible
08 Dec 5.5 01:03:23 10° SW 01:07:27 24° W 01:11:32 10° NW visible
08 Dec 5.8 11:25:19 10° NE 11:28:04 14° E 11:30:48 10° ESE visible
08 Dec 3.1 13:02:54 10° NNE 13:08:01 73° ESE 13:13:06 10° S visible
08 Dec 3.9 14:42:30 10° N 14:46:37 25° NW 14:50:43 10° WSW visible
09 Dec 4.4 00:25:25 10° S 00:30:14 43° W 00:35:06 10° NNW visible
09 Dec 4.3 12:26:11 10° NNE 12:30:58 40° E 12:35:44 10° SSE visible
09 Dec 3.3 14:05:17 10° N 14:10:04 42° WNW 14:14:50 10° SW visible
10 Dec 5.9 01:30:07 10° WSW 01:33:07 16° W 01:36:07 10° NW visible
10 Dec 5.3 11:49:48 10° NE 11:53:45 22° E 11:57:40 10° SE visible
10 Dec 2.9 13:28:13 10° NNE 13:33:20 75° WNW 13:38:24 10° SSW visible
10 Dec 4.3 15:08:13 10° N 15:11:37 18° NW 15:15:00 10° W visible
11 Dec 5.2 00:51:25 10° SSW 00:55:46 28° W 01:00:09 10° NNW visible
11 Dec 6.0 11:14:28 10° ENE 11:16:18 12° E 11:18:09 10° ESE visible
11 Dec 3.4 12:51:21 10° NNE 12:56:25 61° ESE 13:01:27 10° S visible
11 Dec 3.8 14:30:49 10° N 14:35:10 29° WNW 14:39:31 10° WSW visible
